weather.gov     
National Weather Service

Regional Weather Roundup
NWS Homepage
This page is being discontinued on March 12, 2014.
The same data is available at this site. Please update your bookmarks.
Thank you, and we apologize for the inconvenience.
Please send an email to SR-SRH.Webmaster@noaa.gov with any concerns.


Current Version
Previous Version:    01  02  03  04  05  06  07  08  09  10  11  12  13  14  15  16  17  18  19  20  21  22  23  24  25  26  
[Printable]
307
ASUS44 KBMX 310410
RWRAL

ALABAMA REGIONAL WEATHER ROUNDUP
NATIONAL WEATHER SERVICE BIRMINGHAM AL
1100 PM CDT THU OCT 30 2014

NOTE: "FAIR" INDICATES FEW OR NO CLOUDS BELOW 12,000 FEET
WITH NO SIGNIFICANT WEATHER AND/OR OBSTRUCTIONS TO VISIBILITY.

THE REMARK "TC" DENOTES TEMPERATURE IN DEGREES CELSIUS.

ALZ001>011-014-016>018-020-310500-
NORTH ALABAMA

CITY           SKY/WX    TMP DP  RH WIND       PRES   REMARKS
MUSCLE SHOALS  PTCLDY    48  41  76 CALM      30.05S
HUNTSVILLE     PTCLDY    47  41  80 CALM      30.03S
DECATUR        CLEAR     46  41  82 CALM      30.04S
HALEYVILLE     FAIR      44  42  93 CALM      30.06S
GADSDEN        CLEAR     43  37  81 CALM      30.03S
$$

ALZ012-013-022-023-030>036-040>044-310500-
WEST CENTRAL ALABAMA

CITY           SKY/WX    TMP DP  RH WIND       PRES   REMARKS
TUSCALOOSA     CLEAR     48  44  86 CALM      30.04F
$$

ALZ015-024>027-033>036-040>044-310500-
CENTRAL ALABAMA

CITY           SKY/WX    TMP DP  RH WIND       PRES   REMARKS
BIRMINGHAM     CLEAR     46  42  86 CALM      30.04F
MONTGOMERY     CLEAR     48  41  76 W3        30.02S
SHELBY CO ARPT CLEAR     48  44  86 CALM      30.03S
MAXWELL AFB    PTCLDY    46 N/A N/A S1        30.02R
GREENVILLE     FAIR      49  41  74 N5        30.02S
$$

ALZ019-021-028-029-037-038-045>048-310500-
EAST CENTRAL ALABAMA

CITY           SKY/WX    TMP DP  RH WIND       PRES   REMARKS
ANNISTON       CLEAR     43  41  93 CALM      30.03S
ALEXANDER CITY CLEAR     43  38  84 CALM      30.01S
AUBURN         CLEAR     46  37  71 NW5       30.03R
$$

ALZ051>064-310500-
SOUTHWEST ALABAMA

CITY           SKY/WX    TMP DP  RH WIND       PRES   REMARKS
MOBILE         CLEAR     49  44  83 CALM      30.04S
BROOKLEY FIELD CLEAR     55  43  63 NW5       30.04F
EVERGREEN      CLEAR     49  44  83 CALM      30.02F
$$

ALZ049-050-065>069-310500-
SOUTHEAST ALABAMA

CITY           SKY/WX    TMP DP  RH WIND       PRES   REMARKS
DOTHAN         CLEAR     51  42  71 NW6       30.02F
OZARK          CLEAR     54  42  64 NW6       29.99F
TROY           CLEAR     45  43  93 CALM      30.01F
EUFAULA        FAIR      46  43  89 CALM      29.99S
$$




U.S. Dept. of Commerce
NOAA National Weather Service
1325 East West Highway
Silver Spring, MD 20910
E-mail: w-nws.webmaster@noaa.gov
Page last modified: May 16, 2007
NATIONAL WEATHER SERVICE: for Safety, for Work, for Fun - FOR LIFE